Regional Weather Roundup
Issued by NWS Cleveland, OH

Home | Current Version | Previous Version | Graphics & Text | Print | Product List | Glossary On
Versions: 1 2 3 4 5 6 7 8 9 10 11 12 13 14 15 16 17 18 19 20 21 22 23 24 25 26 27 28 29 30 31 32 33 34 35 36 37 38 39 40 41 42 43 44 45 46 47 48 49 50
000
ASUS41 KCLE 220502
RWRCLE
OHIO REGIONAL WEATHER ROUNDUP
NATIONAL WEATHER SERVICE CLEVELAND, OH
1200 AM EST SUN JAN 22 2017

NOTE: "FAIR" INDICATES FEW OR NO CLOUDS BELOW 12,000 FEET WITH NO
SIGNIFICANT WEATHER AND/OR OBSTRUCTIONS TO VISIBILITY.

OHZ001>008-015>018-024>027-034-035-043-044-220600-
   NORTHWEST OHIO

CITY           SKY/WX    TMP DP  RH WIND       PRES   REMARKS
DEFIANCE       FOG       45  45 100 CALM      29.63S VSB 1/4
FINDLAY        CLEAR     50  46  86 S7        29.63S
TOLEDO EXPRESS PTCLDY    49  49 100 SW3       29.62S
TOLEDO EXEC    PTCLDY    48  48 100 S7        29.64R FOG
LIMA           CLEAR     52  51  97 S8        29.64S
$$

OHZ009>014-019>023-028>033-038-089-220600-
   NORTHEAST OHIO

CITY           SKY/WX    TMP DP  RH WIND       PRES   REMARKS
CLE-HOPKINS    CLOUDY    58  50  75 S12       29.68S
CLE-LAKEFRONT  CLOUDY    58  51  78 S15G22    29.65R
CUY CO. ARPT   NOT AVBL
LORAIN-ELYRIA  CLOUDY    55  49  80 S9        29.66R
ASHTABULA      MOCLDY    55  49  80 S12       29.67S
AKRON-CANTON   RAIN      54  51  90 CALM      29.70R FOG
WOOSTER        LGT RAIN  54  51  90 SE8       29.68F
MANSFIELD      CLOUDY    54  52  93 S10       29.67R
YOUNGSTOWN     LGT RAIN  53  49  86 SE5       29.71F
$$

OHZ042-051>053-060>062-070>072-077>081-220600-
  SOUTHWEST OHIO

CITY           SKY/WX    TMP DP  RH WIND       PRES   REMARKS
CINC-COVINGTON MOCLDY    53  52  96 S5        29.66R
CINC-LUNKEN    CLOUDY    51  51 100 CALM      29.67R
HAMILTON       MOCLDY    51  51 100 SE3       29.66S
DAYTON         CLOUDY    53  50  89 S6        29.66S
WRIGHT-PAT AFB MOCLDY    51  51 100 CALM      29.65S
DAYTON GENERAL CLOUDY    54  51  90 S7        29.65S
WILMINGTON     LGT RAIN  53  52  96 S7        29.68R
$$

OHZ036-037-039>041-045>050-054>059-063>069-073>076-082>088-220600-
  CENTRAL AND SOUTHEAST OHIO

CITY           SKY/WX    TMP DP  RH WIND       PRES   REMARKS
COLUMBUS       LGT RAIN  56  52  86 S3        29.68R
OSU AIRPORT    CLOUDY    54  52  93 S9        29.67S
BOLTON FIELD   NOT AVBL
RICKENBACK AFB NOT AVBL
NEWARK         LGT RAIN  55  52  89 CALM      29.68S
MARION         CLOUDY    53  49  86 S7        29.66S
LANCASTER      CLOUDY    53  50  89 NW5       29.69R
ZANESVILLE     MOCLDY    53  50  89 CALM      29.68S
NEW PHILLY     NOT AVBL
$$




USA.gov is the U.S. government's official web portal to all federal, state and local government web resources and services.